FYI13P LEBL-LIMJ

Flight info

Callsign FYI13P
Flight time N/A
Altitude 30000
Route AGENA M985 LUMAS DCT NEVIX DCT ODIXU DCT ADITA DCT RAPED Y15 EGHIN
Aircraft A320/M-SDE3FGHIRWY/LB1

Departure

Time N/A
Airport Josep Tarradellas Barcelona-El Prat Airport (LEBL)

Arrival

Time 2026-05-08 20:51
Airport Genoa Cristoforo Colombo Airport (LIMJ)
Time Latitude Longitude Altitude Speed Heading
2026-05-08 20:19 43.48246 7.10214 30103 ft 457 kts 55°
2026-05-08 20:19 43.50047 7.13809 30100 ft 456 kts 54°
2026-05-08 20:20 43.53753 7.20891 30092 ft 455 kts 53°
2026-05-08 20:20 43.57476 7.27928 30080 ft 454 kts 53°
2026-05-08 20:21 43.61164 7.35006 30092 ft 454 kts 54°
2026-05-08 20:21 43.64069 7.42673 30076 ft 454 kts 66°
2026-05-08 20:22 43.66656 7.50631 30055 ft 455 kts 66°
2026-05-08 20:22 43.68822 7.57254 30066 ft 455 kts 65°
2026-05-08 20:23 43.71865 7.66569 30048 ft 456 kts 65°
2026-05-08 20:23 43.75112 7.73982 30049 ft 454 kts 49°
2026-05-08 20:24 43.79386 7.80651 29408 ft 466 kts 47°
2026-05-08 20:24 43.81524 7.84001 28165 ft 462 kts 47°
2026-05-08 20:24 43.83609 7.87283 27639 ft 443 kts 47°
2026-05-08 20:25 43.85618 7.90456 27095 ft 436 kts 47°
2026-05-08 20:25 43.87606 7.93598 26564 ft 432 kts 47°
2026-05-08 20:25 43.89583 7.96718 26039 ft 428 kts 47°
2026-05-08 20:25 43.91509 7.99755 25534 ft 424 kts 47°
2026-05-08 20:26 43.93445 8.02812 25029 ft 419 kts 47°
2026-05-08 20:26 43.95360 8.05839 24551 ft 415 kts 47°
2026-05-08 20:26 43.97256 8.08841 24062 ft 411 kts 47°
2026-05-08 20:26 43.99132 8.11818 23575 ft 408 kts 47°
2026-05-08 20:27 44.00990 8.14769 23064 ft 403 kts 47°
2026-05-08 20:27 44.02822 8.17678 22608 ft 398 kts 48°
2026-05-08 20:27 44.04526 8.20676 22139 ft 394 kts 56°
2026-05-08 20:27 44.05795 8.23968 21690 ft 390 kts 67°
2026-05-08 20:28 44.06623 8.27535 21216 ft 387 kts 76°
2026-05-08 20:28 44.07283 8.31150 20751 ft 384 kts 75°
2026-05-08 20:28 44.07948 8.34741 20269 ft 382 kts 75°
2026-05-08 20:28 44.08615 8.38311 19784 ft 380 kts 75°
2026-05-08 20:29 44.09279 8.41864 19310 ft 379 kts 75°
2026-05-08 20:29 44.09938 8.45403 18829 ft 377 kts 75°
2026-05-08 20:29 44.10593 8.48927 18351 ft 376 kts 75°
2026-05-08 20:29 44.11244 8.52450 17812 ft 375 kts 75°
2026-05-08 20:30 44.11890 8.55949 17344 ft 372 kts 75°
2026-05-08 20:30 44.12518 8.59374 16884 ft 369 kts 75°
2026-05-08 20:30 44.13148 8.62830 16426 ft 367 kts 76°
2026-05-08 20:30 44.13774 8.66265 15973 ft 365 kts 75°
2026-05-08 20:31 44.14395 8.69679 15518 ft 363 kts 75°
2026-05-08 20:31 44.15011 8.73070 15073 ft 361 kts 75°
2026-05-08 20:31 44.15625 8.76444 14696 ft 356 kts 75°
2026-05-08 20:31 44.16225 8.79727 14554 ft 345 kts 75°
2026-05-08 20:32 44.16803 8.82891 14269 ft 339 kts 76°
2026-05-08 20:32 44.17382 8.86060 13935 ft 336 kts 76°
2026-05-08 20:32 44.17953 8.89200 13539 ft 334 kts 75°
2026-05-08 20:32 44.18516 8.92329 13121 ft 332 kts 76°
2026-05-08 20:33 44.19076 8.95438 12732 ft 329 kts 76°
2026-05-08 20:33 44.19545 8.98568 12094 ft 334 kts 88°
2026-05-08 20:33 44.19068 9.01684 11849 ft 333 kts 117°
2026-05-08 20:33 44.17688 9.04271 11862 ft 335 kts 137°
2026-05-08 20:34 44.15763 9.06075 11864 ft 334 kts 157°
2026-05-08 20:34 44.13525 9.06848 11866 ft 333 kts 178°
2026-05-08 20:34 44.09267 9.04927 11865 ft 330 kts 221°
2026-05-08 20:35 44.07809 9.02494 11866 ft 329 kts 242°
2026-05-08 20:35 44.06990 8.99530 11865 ft 329 kts 253°
2026-05-08 20:35 44.06369 8.96463 11864 ft 330 kts 256°
2026-05-08 20:35 44.05826 8.93374 11865 ft 329 kts 259°
2026-05-08 20:36 44.05738 8.90239 11609 ft 322 kts 278°
2026-05-08 20:36 44.06408 8.87328 11369 ft 314 kts 298°
2026-05-08 20:36 44.07724 8.84963 11126 ft 308 kts 317°
2026-05-08 20:36 44.09502 8.83374 10877 ft 302 kts 336°
2026-05-08 20:37 44.11488 8.82681 10634 ft 297 kts 355°
2026-05-08 20:37 44.13525 8.82888 10402 ft 293 kts 14°
2026-05-08 20:37 44.15384 8.84001 10159 ft 292 kts 34°
2026-05-08 20:37 44.16814 8.85979 9960 ft 291 kts 57°
2026-05-08 20:38 44.17589 8.88575 9834 ft 292 kts 80°
2026-05-08 20:38 44.17567 8.91378 9698 ft 292 kts 104°
2026-05-08 20:38 44.16956 8.94075 9571 ft 292 kts 109°
2026-05-08 20:38 44.16312 8.96750 9432 ft 291 kts 109°
2026-05-08 20:39 44.15671 8.99420 9297 ft 290 kts 109°
2026-05-08 20:39 44.15042 9.02047 9168 ft 290 kts 109°
2026-05-08 20:39 44.14405 9.04708 9038 ft 289 kts 109°
2026-05-08 20:39 44.13772 9.07363 8910 ft 288 kts 109°
2026-05-08 20:40 44.13140 9.10009 8779 ft 287 kts 109°
2026-05-08 20:40 44.12511 9.12642 8649 ft 287 kts 109°
2026-05-08 20:40 44.11881 9.15268 8518 ft 286 kts 109°
2026-05-08 20:40 44.11440 9.17926 8389 ft 277 kts 92°
2026-05-08 20:41 44.11691 9.20517 8261 ft 266 kts 70°
2026-05-08 20:41 44.12572 9.22699 8131 ft 255 kts 49°
2026-05-08 20:41 44.13891 9.24256 8003 ft 244 kts 34°
2026-05-08 20:41 44.15267 9.25560 7884 ft 234 kts 34°
2026-05-08 20:42 44.16578 9.26813 7760 ft 230 kts 34°
2026-05-08 20:42 44.17892 9.28071 7637 ft 229 kts 34°
2026-05-08 20:42 44.19205 9.29319 7494 ft 228 kts 31°
2026-05-08 20:42 44.20666 9.30124 7390 ft 227 kts
2026-05-08 20:43 44.22237 9.30139 7271 ft 226 kts 348°
2026-05-08 20:43 44.23702 9.29383 7135 ft 225 kts 327°
2026-05-08 20:43 44.24959 9.28091 7024 ft 225 kts 321°
2026-05-08 20:43 44.26203 9.26766 6774 ft 226 kts 322°
2026-05-08 20:44 44.27460 9.25438 6455 ft 228 kts 321°
2026-05-08 20:44 44.28714 9.24112 6135 ft 230 kts 321°
2026-05-08 20:44 44.29988 9.22765 5827 ft 230 kts 322°
2026-05-08 20:44 44.31249 9.21437 5524 ft 223 kts 322°
2026-05-08 20:45 44.32469 9.20148 5240 ft 216 kts 321°
2026-05-08 20:45 44.33188 9.19215 5052 ft 211 kts 308°
2026-05-08 20:45 44.34124 9.16883 4740 ft 203 kts 289°
2026-05-08 20:45 44.34570 9.15047 4497 ft 196 kts 287°
2026-05-08 20:46 44.34964 9.13267 4213 ft 188 kts 287°
2026-05-08 20:46 44.35332 9.11580 3950 ft 181 kts 287°
2026-05-08 20:46 44.35695 9.09911 3703 ft 179 kts 287°
2026-05-08 20:46 44.36056 9.08251 3453 ft 178 kts 288°
2026-05-08 20:47 44.36413 9.06604 3207 ft 176 kts 289°
2026-05-08 20:47 44.36768 9.04969 2963 ft 175 kts 289°
2026-05-08 20:47 44.37120 9.03347 2721 ft 174 kts 289°
2026-05-08 20:47 44.37469 9.01731 2478 ft 173 kts 289°
2026-05-08 20:48 44.37696 9.00683 2312 ft 168 kts 289°
2026-05-08 20:48 44.38022 8.99172 2097 ft 155 kts 290°
2026-05-08 20:48 44.38428 8.97342 1790 ft 146 kts 292°
2026-05-08 20:48 44.38771 8.96041 1605 ft 142 kts 292°
2026-05-08 20:49 44.39098 8.94717 1359 ft 144 kts 291°
2026-05-08 20:49 44.39355 8.93366 1185 ft 144 kts 287°
2026-05-08 20:49 44.39635 8.92033 1008 ft 143 kts 289°
2026-05-08 20:49 44.39822 8.91151 878 ft 143 kts 287°
2026-05-08 20:50 44.40090 8.89819 701 ft 142 kts 286°
2026-05-08 20:50 44.40345 8.88498 474 ft 140 kts 289°
2026-05-08 20:50 44.40688 8.86758 223 ft 141 kts 288°
2026-05-08 20:50 44.40947 8.85443 44 ft 140 kts 288°
2026-05-08 20:51 44.41174 8.84298 23 ft 87 kts 285°
2026-05-08 20:51 44.41247 8.83918 21 ft 32 kts 285°
2026-05-08 20:51 44.41377 8.83745 20 ft 15 kts
2026-05-08 20:51 44.41418 8.83802 20 ft 12 kts 76°
2026-05-08 20:52 44.41401 8.83913 20 ft 11 kts 105°
2026-05-08 20:52 44.41382 8.84010 21 ft 10 kts 104°
2026-05-08 20:52 44.41361 8.84119 20 ft 8 kts 105°
2026-05-08 20:52 44.41342 8.84217 20 ft 13 kts 105°
2026-05-08 20:53 44.41325 8.84301 22 ft 13 kts 105°
2026-05-08 20:53 44.41321 8.84419 22 ft 13 kts 59°
2026-05-08 20:53 44.41378 8.84523 20 ft 15 kts 52°
2026-05-08 20:53 44.41445 8.84644 22 ft 17 kts 53°
2026-05-08 20:54 44.41509 8.84761 20 ft 7 kts 52°
2026-05-08 20:54 44.41512 8.84820 20 ft 6 kts 102°
2026-05-08 20:54 44.41502 8.84868 20 ft 5 kts 106°
2026-05-08 20:54 44.41494 8.84906 20 ft 4 kts 105°
2026-05-08 20:55 44.41490 8.84928 20 ft 0 kts 105°